Weather Roundup
Issued by NWS

Home | Current Version | Previous Version | Graphics & Text | Print | Product List | Glossary Off
Versions: 1 2 3 4 5 6 7 8 9 10 11 12 13 14 15 16 17 18 19 20 21 22 23 24 25 26 27 28 29 30 31 32 33 34 35 36 37 38 39 40 41 42 43 44 45 46 47 48 49 50

667
NZUS93 KARX 221759
HRRWXR

CURRENT HOURLY OBSERVATIONS ACROSS
MUCH OF THE UPPER MISSISSIPPI VALLEY
NATIONAL WEATHER SERVICE LA CROSSE WI
100 PM CDT WED MAR 22 2017


...SOUTHEAST MINNESOTA...


CITY           SKY/WX    TMP DP  RH WIND       PRES   REMARKS
ROCHESTER      SUNNY     33  14  45 SE13      30.51S WCI  24
ROCHESTER/MAYO FAIR      32   8  36 S7G18     30.52S WCI  26
WINONA         SUNNY     36  10  35 E9        30.56F WCI  29
AUSTIN         CLOUDY    34  12  40 S10G17    30.49F WCI  26
ALBERT LEA     CLOUDY    34  18  51 SE12      30.47F WCI  25
DODGE CENTER   SUNNY     34  18  51 SE15      30.49F WCI  24
PRESTON        SUNNY     33   8  35 SE14      30.52S WCI  23
OWATONNA       SUNNY     36  16  44 S14       30.49F WCI  27
FARIBAULT      SUNNY     36  16  44 SE13      30.50F WCI  27
$$

...ELSEWHERE IN MINNESOTA...


CITY           SKY/WX    TMP DP  RH WIND       PRES   REMARKS
MINNEAPOLIS    MOSUNNY   35   8  32 SE10      30.51F WCI  27
INTNL FALLS    CLOUDY    27   3  35 SE9       30.44F WCI  18
DULUTH         CLOUDY    28   9  44 S10       30.49F WCI  19
RED WING       SUNNY     36   5  27 SE13      30.52F WCI  27
REDWOOD FALLS  CLOUDY    32  17  54 S20       30.44F WCI  20
MANKATO        CLOUDY    33  18  53 S15G22    30.48F WCI  23
WORTHINGTON    CLOUDY    30  22  72 SE15G22   30.40F WCI  19
FAIRMONT       CLOUDY    33  21  61 S16       30.46F WCI  23
$$

...SOUTHWEST WISCONSIN...


CITY           SKY/WX    TMP DP  RH WIND       PRES   REMARKS
LA CROSSE      SUNNY     37   6  27 S8        30.57F WCI  31
PRAIRIE DU CHI SUNNY     34   6  30 SE3       30.57F
BOSCOBEL       SUNNY     37   5  26 E7G18     30.57F WCI  32
LONE ROCK      NOT AVBL
PLATTEVILLE    SUNNY     34  11  38 E9        30.55F WCI  26
FORT MC COY    SUNNY     34   7  32 E8        30.57F WCI  27
MAUSTON-NEW LI CLEAR     32   9  38 SE8       30.57F WCI  24
VIROQUA        FAIR      32   6  33 S7        30.53F WCI  26
WIS DELLS      SUNNY     31   7  36 NE7       30.57F WCI  24
$$

...ELSEWHERE IN WISCONSIN...


CITY           SKY/WX    TMP DP  RH WIND       PRES   REMARKS
MILWAUKEE      CLOUDY    33  16  49 NE8       30.60S WCI  26
MADISON        MOSUNNY   33  12  41 E9        30.57F WCI  25
GREEN BAY      SUNNY     31  15  52 CALM      30.61F
EAU CLAIRE     NOT AVBL
BLACK RVR FLS  FAIR      36   2  24 SE6       30.56F WCI  31
MEDFORD        SUNNY     27  10  49 S7        30.53F WCI  19
WAUSAU         SUNNY     29   7  39 S8        30.55F WCI  21
WIS RAPIDS     SUNNY     32   5  32 SE7       30.58F WCI  26
MARSHFIELD     SUNNY     30   9  41 SE10      30.53F WCI  21
RICE LAKE      SUNNY     31   9  38 E6        30.55F WCI  25
$$

...NORTHEAST IOWA...


CITY           SKY/WX    TMP DP  RH WIND       PRES   REMARKS
WATERLOO       SUNNY     38  17  42 SE10G17   30.51F WCI  31
DUBUQUE        SUNNY     34  11  38 E8        30.54F WCI  27
DECORAH        SUNNY     34   9  35 SE8G16    30.51F WCI  27
MASON CITY     MOSUNNY   36  19  50 SE12      30.49F WCI  28
CHARLES CITY   SUNNY     37  16  41 SE14G21   30.51F WCI  29
OELWEIN        SUNNY     36  16  44 SE14G21   30.52F WCI  27
$$

...ELSEWHERE IN IOWA...


CITY           SKY/WX    TMP DP  RH WIND       PRES   REMARKS
DES MOINES     CLOUDY    41  25  53 SE12      30.47S
IOWA CITY      SUNNY     41  18  39 SE12G20   30.53F
FORT DODGE     CLOUDY    36  21  55 SE10      30.47S WCI  28
MARSHALLTOWN   PTSUNNY   39  21  48 E13       30.48F WCI  31
CEDAR RAPIDS   SUNNY     38  17  42 E8        30.50F WCI  32
$$

...NORTHERN ILLINOIS...


CITY           SKY/WX    TMP DP  RH WIND       PRES   REMARKS
CHICAGO-OHARE  MOSUNNY   35  18  49 E12G22    30.57F WCI  27
CHICAGO-MIDWAY MOSUNNY   33  17  51 NE15G23   30.58F WCI  23
MOLINE         SUNNY     41  18  39 E15G25    30.53F
ROCKFORD       MOSUNNY   38  15  39 E8        30.58F WCI  32
PEORIA         SUNNY     38  20  48 E9        30.54F WCI  31
$$

NOTE: "FAIR" INDICATES FEW OR NO CLOUDS BELOW 12,000 FEET WITH NO
SIGNIFICANT WEATHER AND/OR OBSTRUCTIONS TO VISIBILITY. WIND
SPEEDS ARE IN MILES-PER-HOUR.




USA.gov is the U.S. government's official web portal to all federal, state and local government web resources and services.